Regional Weather Roundup
Issued by NWS

Home | Current Version | Previous Version | Graphics & Text | Print | Product List | Glossary On
Versions: 1 2 3 4 5 6 7 8 9 10 11 12 13 14 15 16 17 18 19 20 21 22 23 24 25 26 27 28 29 30 31 32 33 34 35 36 37 38 39 40 41 42 43 44 45 46 47 48 49 50
000
ASUS45 KSLC 080810
RWRUT

UTAH REGIONAL WEATHER ROUNDUP
NATIONAL WEATHER SERVICE SALT LAKE CITY UT
100 AM MST MON FEB 08 2016

UTZ001>011-023>025-080900-

NORTHERN UTAH

CITY           SKY/WX    TMP DP  RH WIND       PRES   REMARKS
BRIGHAM CITY     N/A     15  12  88 CALM      30.68S
HILL AFB       PTCLDY    28  20  70 SE6       30.65S WCI  22
LOGAN          FOG        9   7  92 CALM      30.69S VSB 1/4
OGDEN          PTCLDY    24  20  84 S7        30.66S WCI  16
PROVO AIRPORT  PTCLDY    14  10  85 CALM      30.68S
SALT LAKE CITY PTCLDY    27  24  89 SE6       30.68R WCI  20
VERNAL         CLOUDY    11   6  81 NW3       30.58R
WENDOVER       PTCLDY    27  23  86 CALM      30.66F
HEBER CITY     PTCLDY     9   7  92 CALM      30.64R
WEST JORDAN    CLEAR     25  19  80 CALM      30.67S

$$

UTZ012>022-026-027-080900-

SOUTHERN/CENTRAL UTAH

CITY           SKY/WX    TMP DP  RH WIND       PRES   REMARKS
BLANDING       CLEAR     28  13  55 N7        30.52S WCI  20
BRYCE CANYON   PTCLDY    21   9  59 N15       30.56F WCI   8
CEDAR CITY     PTCLDY    16  12  84 S3        30.58S
DELTA            N/A      6   4  91 CALM      30.66F VSB<1/4
HANKSVILLE     MOCLDY    14  12  92 CALM      30.60S
MILFORD        MOCLDY     8  32 100 N6        30.62S WCI  -2
MOAB/CYNLANDS  PTCLDY    14  12  92 CALM      30.55S
PRICE          CLEAR     18  11  74 CALM      30.51R
ST GEORGE      MOSUNNY   39  19  45 W3        30.52R
KANAB          CLEAR     30  27  86 CALM      30.53S

$$

REGIONAL REPORTS     COLORADO/ARIZONA

CITY           SKY/WX    TMP DP  RH WIND       PRES   REMARKS
CRAIG, CO      CLOUDY     0  -4  83 CALM      30.55R
GRAND JUNCTION CLOUDY    16  14  92 E3        30.54F
RIFLE          CLOUDY    11   6  81 CALM      30.56S
MONTROSE       CLOUDY    16  10  77 S8        30.56S WCI   5
CORTEZ         CLOUDY    22  14  71 E5        30.43R WCI  16
PAGE, AZ       CLEAR     32  23  69 SW3       30.51S HAZE
GRAND CANYON   PTCLDY    39  15  37 NE16G29   30.47F WCI  30
KINGMAN        CLEAR     44  22  41 NE9       30.38S
FLAGSTAFF      CLEAR     36  13  38 E12       30.45R WCI  28

$$

REGIONAL REPORTS    NEVADA/IDAHO/WYOMING

CITY           SKY/WX    TMP DP  RH WIND       PRES   REMARKS
LAS VEGAS, NV  CLEAR     53  23  31 NE8       30.38S
ELY            PTCLDY    10   5  80 S14       30.63S WCI  -6
ELKO           MOCLDY    13   8  81 E7        30.67R WCI   3
POCATELLO, ID  FOG       24  22  91 NW3       30.69R VSB 3/4
BURLEY         FOG       24  23  96 E8        30.65S VSB 1   WCI  15
EVANSTON, WY   CLOUDY    22  14  71 SW7       30.60R WCI  13
ROCK SPRINGS   CLOUDY    26  16  65 W22       30.50R WCI  12

$$



USA.gov is the U.S. government's official web portal to all federal, state and local government web resources and services.